M I D A S
Marine Information and Data Acquisition System
Tripno 916 of the Zeeleeuw from 2005-06-14 06:20:07 to 2005-06-14 14:56:26
Back to CruiseResearch ActivitiesStationsMapUnderway DataData graphs

EquipmentUnitsComments
TimeDGPSUTC
LatitudeDGPSDM.mWGS84
LongitudeDGPSDM.mWGS84
SpeedMeteo Stationm/sRelative wind speed
DirectionMeteo StationdegRelative wind direction
TemperatureMeteo Stationdeg CelciusAir temperature
PressureMeteo StationPaAtmospheric pressure
HumidityMeteo Station%Relative humidity
Missing or incorrect values are displayed as -999
Metereological data collected by the RV Zeeleeuw from 2005-06-14 06:22:03 to 2005-06-14 15:03:55
                                                                                    Next 1000 lines
Time Latitude Longitude Speed Direction Temperature Pressure Humidity
2005-06-14 06:22:12 51°13.599 2°56.102 3.8 127 11.2 100880 87
2005-06-14 06:22:17 51°13.6 2°56.098 3.4 129 11.2 100880 87
2005-06-14 06:22:22 51°13.601 2°56.094 3.8 138 11.3 100880 87
2005-06-14 06:22:28 51°13.603 2°56.089 3.4 129 11.3 100880 87
2005-06-14 06:22:34 51°13.605 2°56.082 3.8 142 11.3 100880 87
2005-06-14 06:22:38 51°13.607 2°56.076 3.7 149 11.3 100880 87
2005-06-14 06:22:43 51°13.609 2°56.07 5.5 118 11.3 100880 87
2005-06-14 06:22:48 51°13.611 2°56.064 4.8 115 11.3 100880 87
2005-06-14 06:22:53 51°13.613 2°56.057 4.5 116 11.3 100880 87
2005-06-14 06:22:58 51°13.615 2°56.05 4.6 131 11.3 100880 87
2005-06-14 06:23:03 51°13.618 2°56.042 3.6 139 11.3 100880 87
2005-06-14 06:23:08 51°13.62 2°56.034 3.4 144 11.3 100880 87
2005-06-14 06:23:13 51°13.622 2°56.026 5.2 138 11.3 100880 87
2005-06-14 06:23:18 51°13.624 2°56.018 4.7 130 11.3 100880 87
2005-06-14 06:23:23 51°13.626 2°56.01 5 137 11.3 100880 87
2005-06-14 06:23:28 51°13.629 2°56.001 4.8 122 11.3 100880 87
2005-06-14 06:23:33 51°13.631 2°55.993 4.1 113 11.3 100880 87
2005-06-14 06:23:38 51°13.634 2°55.983 3.9 118 11.3 100880 87
2005-06-14 06:23:43 51°13.636 2°55.975 3.8 125 11.3 100880 87
2005-06-14 06:23:48 51°13.64 2°55.964 3.5 111 11.3 100880 87
2005-06-14 06:23:53 51°13.643 2°55.955 2.7 150 11.3 100880 87
2005-06-14 06:23:58 51°13.646 2°55.945 2 139 11.3 100880 87
2005-06-14 06:24:02 51°13.648 2°55.938 2.3 158 11.3 100880 87
2005-06-14 06:24:08 51°13.653 2°55.925 2 150 11.3 100880 87
2005-06-14 06:24:13 51°13.656 2°55.916 3.6 147 11.3 100880 87
2005-06-14 06:24:18 51°13.659 2°55.905 3.6 153 11.3 100880 87
2005-06-14 06:24:23 51°13.662 2°55.896 2.8 161 11.3 100890 87
2005-06-14 06:24:28 51°13.665 2°55.886 2.6 147 11.3 100890 87
2005-06-14 06:24:33 51°13.669 2°55.875 3.5 148 11.3 100890 87
2005-06-14 06:24:38 51°13.672 2°55.864 4.6 155 11.3 100890 87
2005-06-14 06:24:43 51°13.675 2°55.855 6 147 11.3 100890 87
2005-06-14 06:24:48 51°13.677 2°55.844 5.7 144 11.3 100890 87
2005-06-14 06:24:53 51°13.68 2°55.834 4.8 140 11.3 100890 87
2005-06-14 06:24:58 51°13.682 2°55.824 4.6 147 11.3 100890 87
2005-06-14 06:25:03 51°13.684 2°55.815 4.9 151 11.4 100890 87
2005-06-14 06:25:08 51°13.686 2°55.806 5.1 147 11.4 100890 87
2005-06-14 06:25:13 51°13.687 2°55.797 6.1 159 11.4 100890 87
2005-06-14 06:25:19 51°13.689 2°55.787 5 140 11.4 100890 87
2005-06-14 06:25:23 51°13.69 2°55.78 5 142 11.4 100880 87
2005-06-14 06:25:28 51°13.691 2°55.773 4.6 144 11.4 100880 87
2005-06-14 06:25:32 51°13.692 2°55.768 3 141 11.4 100880 87
2005-06-14 06:25:38 51°13.693 2°55.764 4 129 11.4 100880 87
2005-06-14 06:25:43 51°13.693 2°55.762 3.3 142 11.4 100880 87
2005-06-14 06:25:48 51°13.694 2°55.762 3.6 149 11.4 100880 87
2005-06-14 06:25:53 51°13.695 2°55.762 3.6 150 11.4 100890 87
2005-06-14 06:25:57 51°13.696 2°55.762 3.2 148 11.4 100890 87
2005-06-14 06:26:03 51°13.696 2°55.762 3.9 171 11.4 100880 87
2005-06-14 06:26:07 51°13.696 2°55.76 3.2 155 11.4 100880 87
2005-06-14 06:26:13 51°13.696 2°55.758 4.1 171 11.4 100880 87
2005-06-14 06:26:17 51°13.695 2°55.755 3.3 180 11.4 100880 87
2005-06-14 06:26:23 51°13.693 2°55.752 3.6 176 11.4 100890 87
2005-06-14 06:26:28 51°13.692 2°55.75 3.1 187 11.4 100890 87
2005-06-14 06:26:32 51°13.691 2°55.748 3 177 11.4 100890 87
2005-06-14 06:26:38 51°13.691 2°55.746 3.8 181 11.4 100890 87
2005-06-14 06:26:43 51°13.692 2°55.746 2.5 190 11.4 100890 87
2005-06-14 06:26:47 51°13.694 2°55.747 2.2 200 11.4 100890 87
2005-06-14 06:26:52 51°13.696 2°55.747 1.3 198 11.4 100890 87
2005-06-14 06:26:58 51°13.699 2°55.747 1.7 202 11.4 100890 87
2005-06-14 06:27:02 51°13.703 2°55.747 1.7 207 11.3 100890 87
2005-06-14 06:27:07 51°13.708 2°55.746 1.2 213 11.3 100890 87
2005-06-14 06:27:12 51°13.713 2°55.743 1.9 244 11.4 100890 87
2005-06-14 06:27:18 51°13.719 2°55.739 2.2 227 11.4 100890 87
2005-06-14 06:27:23 51°13.725 2°55.733 3 333 11.4 100890 87
2005-06-14 06:27:27 51°13.73 2°55.727 2.9 301 11.4 100890 87
2005-06-14 06:27:32 51°13.737 2°55.719 2.6 42 11.4 100890 87
2005-06-14 06:27:37 51°13.744 2°55.712 2.9 327 11.4 100890 87
2005-06-14 06:27:43 51°13.753 2°55.703 2.4 316 11.5 100890 87
2005-06-14 06:27:48 51°13.762 2°55.693 3.3 325 11.5 100890 87
2005-06-14 06:27:53 51°13.77 2°55.684 3 230 11.5 100880 87
2005-06-14 06:27:56 51°13.776 2°55.679 3.2 317 11.5 100880 87
2005-06-14 06:28:02 51°13.787 2°55.67 2.8 351 11.5 100890 87
2005-06-14 06:28:07 51°13.797 2°55.662 2.6 348 11.5 100890 87
2005-06-14 06:28:12 51°13.807 2°55.653 2.7 303 11.5 100890 87
2005-06-14 06:28:17 51°13.816 2°55.645 2.3 313 11.5 100890 87
2005-06-14 06:28:22 51°13.826 2°55.637 3 339 11.5 100890 87
2005-06-14 06:28:28 51°13.838 2°55.629 3.5 321 11.5 100890 87
2005-06-14 06:28:33 51°13.849 2°55.621 2.5 342 11.6 100890 87
2005-06-14 06:28:37 51°13.859 2°55.615 3.1 346 11.6 100890 87
2005-06-14 06:28:41 51°13.869 2°55.61 2.9 350 11.6 100890 87
2005-06-14 06:28:46 51°13.881 2°55.603 3.2 343 11.6 100890 87
2005-06-14 06:28:53 51°13.896 2°55.595 3.1 344 11.6 100880 87
2005-06-14 06:28:57 51°13.907 2°55.59 2.3 321 11.6 100880 87
2005-06-14 06:29:01 51°13.917 2°55.585 2.9 320 11.6 100880 87
2005-06-14 06:29:08 51°13.932 2°55.577 3.5 326 11.6 100880 87
2005-06-14 06:29:13 51°13.944 2°55.571 3.2 346 11.6 100880 87
2005-06-14 06:29:18 51°13.956 2°55.564 3.4 345 11.6 100880 87
2005-06-14 06:29:23 51°13.967 2°55.558 3.1 320 11.7 100880 87
2005-06-14 06:29:27 51°13.976 2°55.554 4.1 309 11.7 100880 87
2005-06-14 06:29:33 51°13.99 2°55.545 5.1 300 11.7 100890 87
2005-06-14 06:29:38 51°13.999 2°55.538 4.1 284 11.7 100890 87
2005-06-14 06:29:42 51°14.009 2°55.531 4.7 310 11.7 100880 87
2005-06-14 06:29:47 51°14.019 2°55.524 5.3 312 11.7 100880 87
2005-06-14 06:29:52 51°14.028 2°55.517 3.6 322 11.7 100880 87
2005-06-14 06:29:56 51°14.036 2°55.51 4.3 330 11.7 100880 87
2005-06-14 06:30:00 51°14.043 2°55.504 3.6 300 11.7 100890 87
2005-06-14 06:30:07 51°14.057 2°55.491 3 324 11.7 100890 87
2005-06-14 06:30:12 51°14.065 2°55.484 2.9 319 11.7 100890 87
2005-06-14 06:30:17 51°14.075 2°55.475 2 326 11.7 100890 87
2005-06-14 06:30:23 51°14.086 2°55.465 2.8 330 11.8 100890 87
2005-06-14 06:30:28 51°14.094 2°55.457 3.5 313 11.8 100890 87
2005-06-14 06:30:33 51°14.105 2°55.448 2.5 335 11.8 100880 87
2005-06-14 06:30:37 51°14.112 2°55.44 3.2 329 11.8 100880 87
2005-06-14 06:30:43 51°14.122 2°55.431 3.2 312 11.8 100890 87
2005-06-14 06:30:48 51°14.133 2°55.421 3.3 303 11.8 100890 87
2005-06-14 06:30:51 51°14.14 2°55.414 3.6 326 11.8 100880 87
2005-06-14 06:30:58 51°14.153 2°55.402 4 326 11.8 100880 87
2005-06-14 06:31:02 51°14.162 2°55.392 5.6 335 11.8 100880 87
2005-06-14 06:31:07 51°14.172 2°55.38 3.8 346 11.8 100880 87
2005-06-14 06:31:13 51°14.184 2°55.367 4.3 320 11.8 100890 87
2005-06-14 06:31:18 51°14.194 2°55.353 6.8 342 11.8 100890 87
2005-06-14 06:31:23 51°14.206 2°55.34 6.2 344 11.8 100880 86
2005-06-14 06:31:27 51°14.216 2°55.327 5.1 329 11.8 100880 86
2005-06-14 06:31:31 51°14.225 2°55.314 6.3 342 11.9 100880 86
2005-06-14 06:31:37 51°14.236 2°55.296 6.9 330 11.9 100880 86
2005-06-14 06:31:43 51°14.249 2°55.276 6 315 11.9 100880 86
2005-06-14 06:31:47 51°14.257 2°55.26 5 227 11.9 100880 86
2005-06-14 06:31:52 51°14.267 2°55.243 5.1 334 11.9 100880 86
2005-06-14 06:31:57 51°14.276 2°55.226 6.7 343 11.9 100880 86
2005-06-14 06:32:03 51°14.288 2°55.203 6.5 333 11.9 100880 86
2005-06-14 06:32:07 51°14.297 2°55.186 7 330 11.9 100880 86
2005-06-14 06:32:11 51°14.305 2°55.171 7.1 333 11.9 100880 86
2005-06-14 06:32:18 51°14.318 2°55.146 7 337 11.9 100880 86
2005-06-14 06:32:23 51°14.328 2°55.126 6.4 337 11.9 100880 86
2005-06-14 06:32:28 51°14.337 2°55.106 8.2 348 11.9 100880 86
2005-06-14 06:32:32 51°14.347 2°55.087 6.9 333 11.9 100880 86
2005-06-14 06:32:37 51°14.357 2°55.067 7.8 327 11.9 100880 86
2005-06-14 06:32:43 51°14.369 2°55.042 7.2 320 11.9 100880 85
2005-06-14 06:32:48 51°14.378 2°55.024 7.2 326 11.9 100880 85
2005-06-14 06:32:52 51°14.387 2°55.007 7.8 329 11.9 100880 85
2005-06-14 06:32:57 51°14.4 2°54.985 8 325 11.9 100880 85
2005-06-14 06:33:02 51°14.413 2°54.963 7.2 320 11.9 100870 85
2005-06-14 06:33:08 51°14.427 2°54.941 8 318 11.9 100870 85
2005-06-14 06:33:12 51°14.437 2°54.925 8 323 11.9 100870 85
2005-06-14 06:33:17 51°14.451 2°54.904 7.3 322 11.9 100870 85
2005-06-14 06:33:22 51°14.465 2°54.884 7.4 326 11.9 100870 85
2005-06-14 06:33:27 51°14.478 2°54.864 7.4 322 11.9 100870 85
2005-06-14 06:33:33 51°14.492 2°54.842 8 321 11.9 100870 85
2005-06-14 06:33:37 51°14.503 2°54.822 8.4 322 11.9 100870 85
2005-06-14 06:33:42 51°14.513 2°54.802 7.4 327 11.9 100870 85
2005-06-14 06:33:47 51°14.524 2°54.779 7.6 328 11.9 100870 85
2005-06-14 06:33:52 51°14.536 2°54.756 7.2 316 11.9 100880 85
2005-06-14 06:33:57 51°14.548 2°54.73 7.8 318 11.9 100880 85
2005-06-14 06:34:02 51°14.557 2°54.709 8.1 327 11.9 100880 85
2005-06-14 06:34:07 51°14.569 2°54.683 8 327 11.9 100880 85
2005-06-14 06:34:12 51°14.578 2°54.662 7.8 331 11.9 100880 85
2005-06-14 06:34:17 51°14.59 2°54.636 7.6 331 11.9 100880 85
2005-06-14 06:34:22 51°14.601 2°54.613 8.2 336 11.9 100870 85
2005-06-14 06:34:27 51°14.61 2°54.589 7.9 335 11.9 100870 85
2005-06-14 06:34:32 51°14.616 2°54.566 9.4 336 11.9 100870 85
2005-06-14 06:34:37 51°14.623 2°54.538 9.7 332 11.9 100870 85
2005-06-14 06:34:43 51°14.63 2°54.51 9.3 329 11.9 100870 85
2005-06-14 06:34:48 51°14.636 2°54.483 8.7 332 11.9 100870 85
2005-06-14 06:34:53 51°14.642 2°54.457 9.1 330 11.9 100870 85
2005-06-14 06:34:57 51°14.646 2°54.433 9.5 329 11.9 100870 85
2005-06-14 06:35:02 51°14.651 2°54.406 9.5 328 11.9 100870 85
2005-06-14 06:35:07 51°14.656 2°54.379 9.5 330 11.9 100870 85
2005-06-14 06:35:12 51°14.661 2°54.355 9.3 328 11.9 100870 85
2005-06-14 06:35:17 51°14.666 2°54.326 9 333 11.9 100870 85
2005-06-14 06:35:22 51°14.671 2°54.302 9.8 332 12 100870 86
2005-06-14 06:35:28 51°14.675 2°54.269 10.5 336 12 100870 86
2005-06-14 06:35:32 51°14.678 2°54.248 11 334 11.9 100870 86
2005-06-14 06:35:37 51°14.68 2°54.221 11.1 335 11.9 100870 86
2005-06-14 06:35:42 51°14.681 2°54.191 10.4 333 11.9 100860 85
2005-06-14 06:35:48 51°14.682 2°54.161 10.9 332 11.9 100860 85
2005-06-14 06:35:52 51°14.682 2°54.136 10.9 338 11.9 100860 86
2005-06-14 06:35:57 51°14.683 2°54.109 10.3 334 11.9 100860 86
2005-06-14 06:36:02 51°14.684 2°54.082 10.9 340 11.9 100860 86
2005-06-14 06:36:07 51°14.684 2°54.055 10.6 335 11.9 100860 86
2005-06-14 06:36:12 51°14.685 2°54.03 9.9 337 11.9 100860 86
2005-06-14 06:36:17 51°14.685 2°54 10 335 11.9 100860 86
2005-06-14 06:36:22 51°14.685 2°53.972 9.9 333 12 100860 86
2005-06-14 06:36:28 51°14.686 2°53.942 10.5 338 12 100860 86
2005-06-14 06:36:32 51°14.686 2°53.92 9.2 340 11.9 100850 86
2005-06-14 06:36:38 51°14.688 2°53.886 10.3 337 11.9 100850 86
2005-06-14 06:36:41 51°14.689 2°53.868 10.3 336 11.9 100870 86
2005-06-14 06:36:47 51°14.69 2°53.835 9.7 336 11.9 100870 86
2005-06-14 06:36:52 51°14.69 2°53.81 10.7 342 11.9 100860 86
2005-06-14 06:36:57 51°14.691 2°53.78 11.3 332 11.9 100860 86
2005-06-14 06:37:02 51°14.692 2°53.755 10.3 334 11.9 100870 86
2005-06-14 06:37:08 51°14.693 2°53.722 10.4 334 11.9 100870 86
2005-06-14 06:37:13 51°14.694 2°53.694 10.6 333 11.9 100860 86
2005-06-14 06:37:17 51°14.695 2°53.669 10.3 337 11.9 100860 86
2005-06-14 06:37:22 51°14.696 2°53.642 10.2 337 11.9 100860 86
2005-06-14 06:37:27 51°14.696 2°53.614 9.8 335 11.9 100860 86
2005-06-14 06:37:32 51°14.696 2°53.589 10.5 339 11.9 100860 86
2005-06-14 06:37:38 51°14.695 2°53.556 10.2 340 11.9 100860 86
2005-06-14 06:37:41 51°14.695 2°53.537 10.7 335 11.9 100860 86
2005-06-14 06:37:48 51°14.696 2°53.5 10.4 343 11.9 100860 86
2005-06-14 06:37:52 51°14.695 2°53.478 9.7 338 11.9 100860 86
2005-06-14 06:37:57 51°14.696 2°53.451 10.7 341 11.9 100860 86
2005-06-14 06:38:02 51°14.697 2°53.423 10 339 11.9 100860 86
2005-06-14 06:38:07 51°14.698 2°53.392 10.2 335 11.9 100860 86
2005-06-14 06:38:13 51°14.699 2°53.361 10.4 337 12 100860 87
2005-06-14 06:38:17 51°14.7 2°53.336 9.7 336 12 100860 87
2005-06-14 06:38:22 51°14.701 2°53.311 11.4 339 12 100860 87
2005-06-14 06:38:27 51°14.702 2°53.28 10.6 336 12 100860 87
2005-06-14 06:38:32 51°14.703 2°53.255 10.9 335 12 100860 87
2005-06-14 06:38:37 51°14.704 2°53.224 10.9 340 12 100860 87
2005-06-14 06:38:42 51°14.705 2°53.196 10.6 339 12 100850 87
2005-06-14 06:38:47 51°14.707 2°53.168 10.4 335 12 100850 87
2005-06-14 06:38:52 51°14.708 2°53.142 11.4 337 12 100850 87
2005-06-14 06:38:57 51°14.711 2°53.112 11.5 339 12 100850 87
2005-06-14 06:39:01 51°14.713 2°53.09 11.3 336 12 100860 87
2005-06-14 06:39:08 51°14.716 2°53.053 10.9 335 12 100860 87
2005-06-14 06:39:12 51°14.717 2°53.031 11.4 335 12 100850 87
2005-06-14 06:39:17 51°14.717 2°53 10.8 338 12 100850 87
2005-06-14 06:39:23 51°14.716 2°52.97 11.3 346 12 100850 87
2005-06-14 06:39:28 51°14.714 2°52.942 12 342 12 100850 87
2005-06-14 06:39:32 51°14.712 2°52.917 11 337 12 100860 87
2005-06-14 06:39:37 51°14.71 2°52.889 12.1 346 12 100860 87
2005-06-14 06:39:43 51°14.707 2°52.859 11.9 345 12 100850 87
2005-06-14 06:39:47 51°14.705 2°52.834 11.4 345 12 100850 87
2005-06-14 06:39:53 51°14.702 2°52.804 10.4 346 12 100860 87
2005-06-14 06:39:57 51°14.699 2°52.782 10.8 341 12 100860 87
2005-06-14 06:40:01 51°14.697 2°52.763 10.2 343 12 100850 87
2005-06-14 06:40:07 51°14.693 2°52.737 10.3 341 12 100850 87
2005-06-14 06:40:12 51°14.69 2°52.72 9.8 340 12 100850 87
2005-06-14 06:40:17 51°14.686 2°52.7 10.1 345 12 100850 87
2005-06-14 06:40:23 51°14.681 2°52.683 8.9 349 12 100860 87
2005-06-14 06:40:27 51°14.678 2°52.67 9.5 350 12 100860 87
2005-06-14 06:40:33 51°14.672 2°52.655 9 347 12.1 100860 87
2005-06-14 06:40:37 51°14.669 2°52.646 8.4 352 12.1 100860 87
2005-06-14 06:40:43 51°14.664 2°52.635 8 353 12.1 100860 87
2005-06-14 06:40:47 51°14.661 2°52.625 7.9 346 12.1 100860 87
2005-06-14 06:40:52 51°14.657 2°52.617 7.9 344 12.1 100860 87
2005-06-14 06:40:57 51°14.654 2°52.607 7.9 344 12.1 100860 87
2005-06-14 06:41:01 51°14.651 2°52.602 6.9 349 12.1 100860 87
2005-06-14 06:41:07 51°14.648 2°52.591 7.5 337 12.1 100860 87
2005-06-14 06:41:12 51°14.646 2°52.584 7.7 338 12.1 100860 87
2005-06-14 06:41:17 51°14.643 2°52.576 7.9 335 12.1 100860 87
2005-06-14 06:41:23 51°14.64 2°52.569 7.7 336 12.1 100870 87
2005-06-14 06:41:28 51°14.638 2°52.562 7.2 341 12.1 100870 87
2005-06-14 06:41:32 51°14.637 2°52.556 7.5 335 12.1 100870 87
2005-06-14 06:41:37 51°14.635 2°52.548 7.1 335 12.1 100870 87
2005-06-14 06:41:43 51°14.634 2°52.54 7.6 330 12.1 100870 86
2005-06-14 06:41:47 51°14.633 2°52.533 7.3 327 12.1 100870 86
2005-06-14 06:41:52 51°14.631 2°52.526 7.6 332 12.1 100870 86
2005-06-14 06:41:57 51°14.63 2°52.518 7.9 340 12.1 100870 86
2005-06-14 06:42:03 51°14.628 2°52.51 8.5 340 12.1 100870 86
2005-06-14 06:42:08 51°14.627 2°52.502 8.2 339 12.1 100870 86
2005-06-14 06:42:12 51°14.625 2°52.496 7.1 347 12.1 100870 86
2005-06-14 06:42:17 51°14.624 2°52.489 7 341 12.1 100870 86
2005-06-14 06:42:22 51°14.622 2°52.482 7.1 342 12.1 100870 86
2005-06-14 06:42:28 51°14.62 2°52.473 7.2 340 12.1 100870 86
2005-06-14 06:42:33 51°14.619 2°52.466 7.1 348 12.1 100870 86
2005-06-14 06:42:37 51°14.617 2°52.46 7.2 348 12.1 100870 86
2005-06-14 06:42:41 51°14.616 2°52.454 7.3 347 12.1 100870 86
2005-06-14 06:42:48 51°14.614 2°52.444 7.6 349 12.1 100870 86
2005-06-14 06:42:52 51°14.612 2°52.438 7.3 348 12.1 100870 86
2005-06-14 06:42:58 51°14.611 2°52.43 7 345 12.1 100870 86
2005-06-14 06:43:01 51°14.609 2°52.425 6.8 338 12.1 100880 86
2005-06-14 06:43:07 51°14.608 2°52.416 7 333 12.1 100880 86
2005-06-14 06:43:13 51°14.606 2°52.408 7.6 340 12.1 100870 86
2005-06-14 06:43:18 51°14.605 2°52.401 7.9 341 12.1 100870 86
2005-06-14 06:43:23 51°14.604 2°52.394 7.5 339 12.2 100870 86
2005-06-14 06:43:28 51°14.603 2°52.386 7.3 339 12.2 100870 86
2005-06-14 06:43:32 51°14.602 2°52.38 7.1 337 12.2 100870 86
2005-06-14 06:43:37 51°14.601 2°52.372 7.4 335 12.2 100870 86
2005-06-14 06:43:41 51°14.6 2°52.366 7.2 334 12.2 100870 86
2005-06-14 06:43:48 51°14.599 2°52.356 6.8 335 12.2 100870 86
2005-06-14 06:43:52 51°14.599 2°52.35 7 332 12.2 100870 86
2005-06-14 06:43:57 51°14.598 2°52.342 6.1 330 12.2 100870 86
2005-06-14 06:44:02 51°14.597 2°52.335 6.2 332 12.2 100870 86
2005-06-14 06:44:08 51°14.597 2°52.326 6.6 333 12.2 100870 86
2005-06-14 06:44:12 51°14.597 2°52.32 6.7 330 12.2 100870 86
2005-06-14 06:44:17 51°14.596 2°52.312 6.7 334 12.2 100870 86
2005-06-14 06:44:22 51°14.596 2°52.305 7 330 12.2 100870 86
2005-06-14 06:44:28 51°14.596 2°52.296 6.4 334 12.2 100870 86
2005-06-14 06:44:32 51°14.595 2°52.289 6.3 330 12.2 100880 86
2005-06-14 06:44:37 51°14.596 2°52.281 7.1 330 12.2 100880 86
2005-06-14 06:44:41 51°14.595 2°52.275 7.8 335 12.2 100870 86
2005-06-14 06:44:48 51°14.596 2°52.265 8.6 332 12.2 100870 86
2005-06-14 06:44:53 51°14.596 2°52.257 7 333 12.2 100870 86
2005-06-14 06:44:57 51°14.596 2°52.251 8 328 12.2 100870 86
2005-06-14 06:45:02 51°14.596 2°52.243 7.2 328 12.3 100870 86
2005-06-14 06:45:08 51°14.596 2°52.235 7 325 12.3 100870 86
2005-06-14 06:45:12 51°14.597 2°52.229 7.1 320 12.3 100870 86
2005-06-14 06:45:17 51°14.597 2°52.22 6.4 324 12.3 100870 86
2005-06-14 06:45:23 51°14.597 2°52.212 7.6 329 12.3 100880 86
2005-06-14 06:45:28 51°14.597 2°52.204 7.1 324 12.3 100880 86
2005-06-14 06:45:32 51°14.598 2°52.198 8.1 331 12.3 100870 86
2005-06-14 06:45:38 51°14.598 2°52.189 7.4 331 12.3 100870 86
2005-06-14 06:45:41 51°14.598 2°52.184 8.2 335 12.3 100870 86
2005-06-14 06:45:47 51°14.598 2°52.175 7.1 337 12.3 100870 86
2005-06-14 06:45:52 51°14.598 2°52.168 7.7 333 12.3 100870 86
2005-06-14 06:45:58 51°14.599 2°52.159 7.3 331 12.3 100870 86
2005-06-14 06:46:02 51°14.599 2°52.153 7.6 335 12.3 100870 85
2005-06-14 06:46:07 51°14.599 2°52.145 7.5 331 12.3 100870 85
2005-06-14 06:46:12 51°14.599 2°52.138 7.8 332 12.3 100870 85
2005-06-14 06:46:17 51°14.6 2°52.13 7.5 327 12.3 100870 85
2005-06-14 06:46:21 51°14.6 2°52.125 7.3 325 12.3 100870 85
2005-06-14 06:46:27 51°14.6 2°52.116 7.3 323 12.3 100870 85
2005-06-14 06:46:32 51°14.6 2°52.11 6.7 321 12.3 100870 85
2005-06-14 06:46:37 51°14.6 2°52.102 6.8 329 12.3 100870 85
2005-06-14 06:46:43 51°14.6 2°52.095 5.9 334 12.3 100870 85
2005-06-14 06:46:47 51°14.6 2°52.089 6.6 335 12.3 100870 85
2005-06-14 06:46:52 51°14.6 2°52.083 6.8 327 12.4 100870 86
2005-06-14 06:46:57 51°14.599 2°52.075 6.4 324 12.4 100870 86
2005-06-14 06:47:02 51°14.599 2°52.069 6.3 335 12.4 100870 86
2005-06-14 06:47:08 51°14.599 2°52.061 6.6 337 12.4 100870 86
2005-06-14 06:47:12 51°14.598 2°52.056 6.2 338 12.4 100870 86
2005-06-14 06:47:17 51°14.598 2°52.05 6.9 328 12.4 100870 86
2005-06-14 06:47:23 51°14.597 2°52.043 6.4 329 12.5 100870 86
2005-06-14 06:47:28 51°14.596 2°52.037 6.3 336 12.5 100870 86
2005-06-14 06:47:33 51°14.596 2°52.03 6.9 329 12.5 100880 86
2005-06-14 06:47:37 51°14.595 2°52.025 7 347 12.5 100880 86
2005-06-14 06:47:42 51°14.595 2°52.02 7.2 339 12.5 100880 86
2005-06-14 06:47:48 51°14.594 2°52.012 7.1 345 12.5 100880 86
2005-06-14 06:47:52 51°14.593 2°52.007 7.3 339 12.5 100870 86
2005-06-14 06:47:57 51°14.593 2°52.002 6.8 338 12.5 100880 86
2005-06-14 06:48:03 51°14.591 2°51.996 7.5 345 12.5 100880 86
2005-06-14 06:48:08 51°14.59 2°51.99 7.2 345 12.5 100880 86
2005-06-14 06:48:12 51°14.589 2°51.986 7.7 355 12.5 100880 86
2005-06-14 06:48:18 51°14.588 2°51.98 7.1 353 12.5 100880 86
2005-06-14 06:48:23 51°14.587 2°51.975 6.8 354 12.5 100870 86
2005-06-14 06:48:28 51°14.586 2°51.97 7.3 350 12.5 100870 86
2005-06-14 06:48:33 51°14.585 2°51.965 6.9 350 12.5 100880 86
2005-06-14 06:48:37 51°14.584 2°51.96 6.2 354 12.5 100880 86
2005-06-14 06:48:41 51°14.583 2°51.957 6.8 354 12.5 100880 85
2005-06-14 06:48:48 51°14.581 2°51.951 7.2 354 12.5 100880 85
2005-06-14 06:48:52 51°14.579 2°51.947 7.3 354 12.5 100880 85
2005-06-14 06:48:57 51°14.578 2°51.942 7.3 350 12.5 100880 85
2005-06-14 06:49:02 51°14.576 2°51.937 7.6 351 12.5 100880 85
2005-06-14 06:49:08 51°14.574 2°51.931 7.5 351 12.5 100880 85
2005-06-14 06:49:12 51°14.573 2°51.926 7.6 359 12.5 100880 85
2005-06-14 06:49:17 51°14.571 2°51.921 7.2 355 12.5 100880 85
2005-06-14 06:49:22 51°14.57 2°51.916 7 359 12.5 100880 85
2005-06-14 06:49:27 51°14.568 2°51.91 6.4 349 12.5 100880 85
2005-06-14 06:49:33 51°14.566 2°51.904 6.5 348 12.5 100880 85
2005-06-14 06:49:37 51°14.564 2°51.9 6.2 348 12.5 100880 85
2005-06-14 06:49:43 51°14.562 2°51.893 6.7 350 12.5 100880 84
2005-06-14 06:49:48 51°14.56 2°51.888 7 348 12.5 100880 84
2005-06-14 06:49:52 51°14.559 2°51.883 7.4 343 12.5 100880 84
2005-06-14 06:49:57 51°14.556 2°51.876 7.4 345 12.5 100880 84
2005-06-14 06:50:01 51°14.555 2°51.872 7.4 345 12.5 100880 84
2005-06-14 06:50:07 51°14.553 2°51.865 6.7 344 12.5 100880 84
2005-06-14 06:50:13 51°14.551 2°51.858 7.7 348 12.5 100880 85
2005-06-14 06:50:17 51°14.549 2°51.853 7 348 12.5 100880 85
2005-06-14 06:50:23 51°14.547 2°51.846 7.7 345 12.5 100880 85
2005-06-14 06:50:27 51°14.545 2°51.841 6.8 352 12.5 100880 85
2005-06-14 06:50:32 51°14.543 2°51.835 7.7 347 12.6 100880 85
2005-06-14 06:50:37 51°14.541 2°51.829 7.7 350 12.6 100880 85
2005-06-14 06:50:41 51°14.54 2°51.824 7.9 347 12.6 100880 85
2005-06-14 06:50:48 51°14.537 2°51.816 7.9 347 12.6 100880 85
2005-06-14 06:50:52 51°14.536 2°51.811 8 346 12.6 100880 84
2005-06-14 06:50:57 51°14.533 2°51.805 7.7 347 12.6 100880 84
2005-06-14 06:51:03 51°14.531 2°51.798 7.1 353 12.6 100870 84
2005-06-14 06:51:08 51°14.529 2°51.792 7.2 348 12.6 100870 84
2005-06-14 06:51:13 51°14.527 2°51.786 7.2 349 12.6 100880 84
2005-06-14 06:51:17 51°14.525 2°51.781 7.2 347 12.6 100880 84
2005-06-14 06:51:22 51°14.524 2°51.775 7.7 348 12.6 100880 84
2005-06-14 06:51:28 51°14.521 2°51.768 7.4 350 12.6 100880 84
2005-06-14 06:51:33 51°14.519 2°51.762 7.5 345 12.6 100880 84
2005-06-14 06:51:37 51°14.517 2°51.757 7.5 347 12.6 100880 84
2005-06-14 06:51:43 51°14.515 2°51.75 7.4 344 12.6 100880 84
2005-06-14 06:51:48 51°14.513 2°51.744 7.2 346 12.6 100880 84
2005-06-14 06:51:53 51°14.511 2°51.738 6.9 -999 12.6 100880 84
2005-06-14 06:51:57 51°14.509 2°51.732 6.7 349 12.6 100880 84
2005-06-14 06:52:03 51°14.507 2°51.726 6.7 348 12.6 100870 84
2005-06-14 06:52:08 51°14.505 2°51.72 6.6 348 12.6 100870 84
2005-06-14 06:52:12 51°14.504 2°51.715 6.6 352 12.6 100880 84
2005-06-14 06:52:17 51°14.501 2°51.709 6.5 354 12.6 100880 84
2005-06-14 06:52:22 51°14.5 2°51.704 6.7 353 12.6 100880 83
2005-06-14 06:52:27 51°14.497 2°51.698 7.3 352 12.6 100880 83
2005-06-14 06:52:33 51°14.495 2°51.691 6.8 351 12.6 100880 83
2005-06-14 06:52:37 51°14.493 2°51.686 6.6 353 12.6 100880 83
2005-06-14 06:52:43 51°14.492 2°51.68 6.5 353 12.7 100890 84
2005-06-14 06:52:47 51°14.49 2°51.675 6.4 347 12.7 100890 84
2005-06-14 06:52:53 51°14.488 2°51.668 6.4 351 12.7 100880 84
2005-06-14 06:52:58 51°14.486 2°51.662 6.9 343 12.7 100880 84
2005-06-14 06:53:03 51°14.484 2°51.657 7.2 345 12.7 100880 84
2005-06-14 06:53:07 51°14.482 2°51.651 6.9 343 12.7 100880 84
2005-06-14 06:53:13 51°14.479 2°51.645 7.2 343 12.7 100880 84
2005-06-14 06:53:18 51°14.478 2°51.639 7.4 339 12.7 100880 84
2005-06-14 06:53:23 51°14.476 2°51.633 6.9 338 12.7 100880 84
2005-06-14 06:53:28 51°14.474 2°51.627 6.8 345 12.7 100880 84
2005-06-14 06:53:32 51°14.472 2°51.622 7 343 12.7 100890 84
2005-06-14 06:53:37 51°14.47 2°51.617 6.7 357 12.7 100890 84
2005-06-14 06:53:42 51°14.468 2°51.611 6.9 352 12.7 100880 83
2005-06-14 06:53:48 51°14.466 2°51.604 7.2 355 12.7 100880 83
2005-06-14 06:53:53 51°14.464 2°51.598 7.2 -999 12.7 100890 84
2005-06-14 06:53:57 51°14.462 2°51.594 7.1 352 12.7 100890 84
2005-06-14 06:54:02 51°14.461 2°51.588 6.9 348 12.7 100890 84
2005-06-14 06:54:08 51°14.459 2°51.581 6.8 355 12.7 100880 83
2005-06-14 06:54:12 51°14.457 2°51.576 6.9 351 12.7 100880 83
2005-06-14 06:54:17 51°14.455 2°51.571 6.3 352 12.7 100880 83
2005-06-14 06:54:21 51°14.453 2°51.566 6.9 347 12.7 100880 83
2005-06-14 06:54:28 51°14.451 2°51.558 6.8 348 12.7 100880 83
2005-06-14 06:54:33 51°14.449 2°51.552 6.8 343 12.8 100880 83
2005-06-14 06:54:37 51°14.447 2°51.547 7.2 346 12.8 100880 83
2005-06-14 06:54:43 51°14.445 2°51.541 7.1 348 12.8 100880 84
2005-06-14 06:54:48 51°14.443 2°51.535 7 344 12.8 100880 84
2005-06-14 06:54:52 51°14.442 2°51.529 7.1 345 12.8 100890 84
2005-06-14 06:54:57 51°14.44 2°51.524 6.8 343 12.8 100890 83
2005-06-14 06:55:02 51°14.438 2°51.518 6.7 341 12.8 100890 83
2005-06-14 06:55:08 51°14.436 2°51.511 6.8 342 12.8 100890 83
2005-06-14 06:55:12 51°14.434 2°51.506 7.3 349 12.8 100880 83
2005-06-14 06:55:17 51°14.433 2°51.5 7.6 345 12.8 100880 83
2005-06-14 06:55:22 51°14.431 2°51.494 6.8 350 12.8 100890 83
2005-06-14 06:55:27 51°14.429 2°51.488 6.8 346 12.8 100890 83
2005-06-14 06:55:32 51°14.428 2°51.482 6.8 348 12.8 100890 83
2005-06-14 06:55:37 51°14.426 2°51.476 7 346 12.8 100890 83
2005-06-14 06:55:43 51°14.424 2°51.47 7.4 345 12.8 100890 83
2005-06-14 06:55:48 51°14.423 2°51.463 7.6 342 12.8 100890 83
2005-06-14 06:55:52 51°14.422 2°51.458 7.3 345 12.8 100890 83
2005-06-14 06:55:57 51°14.42 2°51.452 7 352 12.8 100890 83
2005-06-14 06:56:02 51°14.418 2°51.446 7.1 350 12.8 100890 83
2005-06-14 06:56:07 51°14.417 2°51.44 6.6 351 12.8 100890 83
2005-06-14 06:56:12 51°14.415 2°51.434 7 350 12.8 100880 83
2005-06-14 06:56:17 51°14.414 2°51.428 7.1 348 12.8 100880 83
2005-06-14 06:56:23 51°14.412 2°51.421 7 348 12.8 100890 83
2005-06-14 06:56:27 51°14.411 2°51.416 6.8 351 12.8 100890 83
2005-06-14 06:56:33 51°14.409 2°51.409 7.1 344 12.8 100890 83
2005-06-14 06:56:37 51°14.407 2°51.404 7.1 344 12.8 100890 83
2005-06-14 06:56:42 51°14.406 2°51.398 7.2 343 12.8 100890 82
2005-06-14 06:56:48 51°14.404 2°51.391 7.4 345 12.8 100890 82
2005-06-14 06:56:52 51°14.403 2°51.387 7.7 -999 12.8 100890 82
2005-06-14 06:56:57 51°14.401 2°51.38 7 347 12.8 100890 82
2005-06-14 06:57:03 51°14.399 2°51.373 7.2 343 12.8 100890 82
2005-06-14 06:57:07 51°14.398 2°51.368 6.5 346 12.8 100890 82
2005-06-14 06:57:12 51°14.397 2°51.363 8 343 12.8 100890 82
2005-06-14 06:57:17 51°14.395 2°51.356 7.1 347 12.8 100890 82
2005-06-14 06:57:21 51°14.394 2°51.351 7.5 349 12.8 100890 82
2005-06-14 06:57:27 51°14.392 2°51.344 7.4 338 12.8 100890 82
2005-06-14 06:57:33 51°14.39 2°51.337 7.2 341 12.8 100890 82
2005-06-14 06:57:37 51°14.389 2°51.332 7.3 338 12.8 100890 82
2005-06-14 06:57:42 51°14.387 2°51.326 7 341 12.8 100890 82
2005-06-14 06:57:47 51°14.386 2°51.32 6.8 338 12.8 100880 82
2005-06-14 06:57:53 51°14.384 2°51.313 7.2 345 12.8 100880 82
2005-06-14 06:57:57 51°14.383 2°51.308 6.9 337 12.8 100890 82
2005-06-14 06:58:03 51°14.381 2°51.302 7.1 343 12.8 100890 82
2005-06-14 06:58:08 51°14.38 2°51.296 7 343 12.8 100900 82
2005-06-14 06:58:12 51°14.378 2°51.291 7.4 339 12.8 100900 82
2005-06-14 06:58:17 51°14.377 2°51.285 7.1 344 12.8 100890 82
2005-06-14 06:58:22 51°14.375 2°51.278 7.3 342 12.8 100890 82
2005-06-14 06:58:27 51°14.374 2°51.273 7.2 342 12.8 100890 82
2005-06-14 06:58:32 51°14.372 2°51.267 7 340 12.8 100890 82
2005-06-14 06:58:37 51°14.371 2°51.261 6.9 339 12.8 100890 82
2005-06-14 06:58:41 51°14.37 2°51.256 5.9 343 12.8 100890 82
2005-06-14 06:58:47 51°14.367 2°51.25 7 336 12.8 100890 82
2005-06-14 06:58:52 51°14.366 2°51.244 7.8 341 12.8 100890 82
2005-06-14 06:58:57 51°14.364 2°51.238 6.7 338 12.8 100890 82
2005-06-14 06:59:02 51°14.363 2°51.232 7.1 338 12.8 100890 82
2005-06-14 06:59:07 51°14.361 2°51.227 6.6 337 12.8 100890 82
2005-06-14 06:59:13 51°14.36 2°51.22 6.7 333 12.8 100890 82
2005-06-14 06:59:17 51°14.358 2°51.215 6.9 342 12.8 100890 82
2005-06-14 06:59:23 51°14.356 2°51.208 7.4 340 12.8 100890 82
2005-06-14 06:59:27 51°14.355 2°51.203 7.7 342 12.8 100890 82
2005-06-14 06:59:32 51°14.354 2°51.198 7.8 343 12.8 100890 82
2005-06-14 06:59:38 51°14.352 2°51.191 6.7 343 12.8 100900 82
2005-06-14 06:59:42 51°14.35 2°51.186 7.3 345 12.8 100900 82
2005-06-14 06:59:47 51°14.349 2°51.18 6.7 347 12.8 100890 82
2005-06-14 06:59:53 51°14.347 2°51.173 7.4 347 12.8 100890 82
2005-06-14 06:59:57 51°14.346 2°51.168 6.9 345 12.8 100890 82
2005-06-14 07:00:02 51°14.344 2°51.162 6.8 346 12.8 100890 82
2005-06-14 07:00:08 51°14.342 2°51.155 6.7 347 12.8 100890 82
2005-06-14 07:00:13 51°14.341 2°51.149 6.7 343 12.8 100890 82
2005-06-14 07:00:17 51°14.339 2°51.144 7 340 12.8 100890 82
2005-06-14 07:00:23 51°14.338 2°51.137 7.4 342 12.8 100890 82
2005-06-14 07:00:27 51°14.336 2°51.132 7.4 345 12.8 100900 82
2005-06-14 07:00:32 51°14.335 2°51.127 7.5 343 12.8 100900 82
2005-06-14 07:00:37 51°14.333 2°51.12 7.6 343 12.8 100890 82
2005-06-14 07:00:43 51°14.331 2°51.113 7.1 347 12.8 100890 82
2005-06-14 07:00:47 51°14.33 2°51.108 7 346 12.8 100890 82
2005-06-14 07:00:52 51°14.328 2°51.103 7.1 347 12.8 100890 82
2005-06-14 07:00:57 51°14.326 2°51.096 6.2 349 12.8 100890 82
2005-06-14 07:01:03 51°14.325 2°51.09 6.4 342 12.8 100890 82
2005-06-14 07:01:07 51°14.323 2°51.085 6.5 345 12.8 100900 82
2005-06-14 07:01:13 51°14.321 2°51.078 6.5 344 12.8 100900 82
2005-06-14 07:01:17 51°14.32 2°51.073 6.5 346 12.8 100900 82
2005-06-14 07:01:23 51°14.317 2°51.066 7.5 335 12.8 100900 82
2005-06-14 07:01:27 51°14.316 2°51.061 6.9 345 12.8 100890 82
2005-06-14 07:01:32 51°14.314 2°51.055 7.9 337 12.8 100890 82
2005-06-14 07:01:37 51°14.313 2°51.049 7.6 337 12.8 100900 82
2005-06-14 07:01:42 51°14.311 2°51.043 7.8 336 12.8 100900 82
2005-06-14 07:01:47 51°14.31 2°51.037 7.3 339 12.8 100900 82
2005-06-14 07:01:52 51°14.308 2°51.031 7.3 339 12.8 100900 82
2005-06-14 07:01:57 51°14.307 2°51.025 6.3 344 12.8 100890 82
2005-06-14 07:02:02 51°14.305 2°51.019 6.5 333 12.8 100890 82
2005-06-14 07:02:07 51°14.303 2°51.013 6.4 340 12.8 100900 82
2005-06-14 07:02:12 51°14.302 2°51.008 6.9 334 12.8 100900 82
2005-06-14 07:02:17 51°14.3 2°51.001 7.1 341 12.9 100900 83
2005-06-14 07:02:23 51°14.298 2°50.994 6.7 340 12.9 100900 83
2005-06-14 07:02:27 51°14.297 2°50.99 7.4 339 12.9 100900 83
2005-06-14 07:02:32 51°14.295 2°50.983 6.8 343 12.9 100900 83
2005-06-14 07:02:37 51°14.294 2°50.977 6.8 341 12.9 100890 83
2005-06-14 07:02:42 51°14.292 2°50.972 7 343 12.9 100890 83
2005-06-14 07:02:48 51°14.29 2°50.964 6.2 340 12.9 100890 83
2005-06-14 07:02:52 51°14.289 2°50.959 6.2 337 12.9 100890 83
2005-06-14 07:02:56 51°14.288 2°50.954 6.7 331 12.9 100900 82
2005-06-14 07:03:03 51°14.286 2°50.946 6.9 339 12.9 100900 82
2005-06-14 07:03:07 51°14.284 2°50.94 6.7 333 12.9 100890 82
2005-06-14 07:03:13 51°14.283 2°50.933 6.1 338 12.9 100890 82
2005-06-14 07:03:17 51°14.281 2°50.928 6 331 12.9 100900 83
2005-06-14 07:03:21 51°14.28 2°50.923 6.4 330 12.9 100900 83
2005-06-14 07:03:28 51°14.277 2°50.915 6.7 335 12.9 100900 82
2005-06-14 07:03:33 51°14.276 2°50.909 6.3 345 12.9 100900 82
2005-06-14 07:03:38 51°14.274 2°50.903 7.2 334 12.9 100900 82
2005-06-14 07:03:42 51°14.273 2°50.898 6.4 333 12.9 100900 82
2005-06-14 07:03:47 51°14.271 2°50.892 6.5 337 12.9 100900 83
2005-06-14 07:03:52 51°14.27 2°50.886 7.5 332 12.9 100900 83
2005-06-14 07:03:57 51°14.268 2°50.879 6.8 332 12.9 100900 83
2005-06-14 07:04:03 51°14.267 2°50.873 7.5 332 12.9 100900 83
2005-06-14 07:04:08 51°14.265 2°50.866 7.3 332 12.9 100900 83
2005-06-14 07:04:12 51°14.263 2°50.861 7.4 332 12.9 100900 83
2005-06-14 07:04:17 51°14.262 2°50.854 7.1 334 13 100900 83
2005-06-14 07:04:23 51°14.26 2°50.847 7.6 330 13 100900 83
2005-06-14 07:04:27 51°14.259 2°50.842 7 342 13 100900 83
2005-06-14 07:04:32 51°14.257 2°50.837 6.8 329 13 100900 83
2005-06-14 07:04:37 51°14.256 2°50.831 6.9 335 13 100900 83
2005-06-14 07:04:43 51°14.254 2°50.823 7.5 334 13 100900 83
2005-06-14 07:04:48 51°14.252 2°50.817 7 334 13 100900 83
2005-06-14 07:04:52 51°14.251 2°50.812 6.9 334 13 100900 83
2005-06-14 07:04:57 51°14.249 2°50.807 6.4 333 13 100900 83
2005-06-14 07:05:02 51°14.247 2°50.8 7.4 330 13 100900 83
2005-06-14 07:05:07 51°14.246 2°50.793 6.7 328 13 100900 83
2005-06-14 07:05:13 51°14.244 2°50.787 7.4 328 13 100900 83
2005-06-14 07:05:17 51°14.243 2°50.781 6.2 330 13 100890 82
2005-06-14 07:05:22 51°14.241 2°50.775 7 327 13 100890 82
2005-06-14 07:05:28 51°14.24 2°50.768 6.5 330 13 100890 83
2005-06-14 07:05:32 51°14.238 2°50.763 7.3 328 13 100890 83
2005-06-14 07:05:37 51°14.237 2°50.756 6.9 332 13 100890 82
2005-06-14 07:05:41 51°14.235 2°50.751 7 330 13 100890 82
2005-06-14 07:05:47 51°14.234 2°50.744 6.6 344 12.9 100890 82
2005-06-14 07:05:52 51°14.232 2°50.738 7.6 334 12.9 100890 82
2005-06-14 07:05:57 51°14.231 2°50.733 7.4 329 12.9 100900 82
2005-06-14 07:06:02 51°14.229 2°50.726 7 329 12.9 100900 82
2005-06-14 07:06:07 51°14.227 2°50.72 7.4 328 12.9 100900 82
2005-06-14 07:06:12 51°14.226 2°50.715 7.4 331 12.9 100900 82
2005-06-14 07:06:17 51°14.224 2°50.708 7.3 331 12.9 100900 82
2005-06-14 07:06:23 51°14.222 2°50.701 7.7 328 12.9 100900 82
2005-06-14 07:06:27 51°14.221 2°50.695 7.3 330 12.9 100890 82
2005-06-14 07:06:32 51°14.22 2°50.69 7.1 339 12.9 100890 82
2005-06-14 07:06:37 51°14.219 2°50.683 7.1 337 12.9 100900 82
2005-06-14 07:06:43 51°14.217 2°50.676 6.7 336 12.9 100900 82
2005-06-14 07:06:48 51°14.216 2°50.67 7.6 335 12.9 100900 82
2005-06-14 07:06:52 51°14.214 2°50.664 7.4 338 12.9 100900 82
2005-06-14 07:06:57 51°14.213 2°50.657 6.8 341 13 100890 82
2005-06-14 07:07:02 51°14.211 2°50.652 7 340 13 100890 82
2005-06-14 07:07:08 51°14.21 2°50.644 7.6 335 13 100900 83
2005-06-14 07:07:12 51°14.208 2°50.64 7.1 336 13 100900 83
2005-06-14 07:07:17 51°14.207 2°50.633 7.6 336 13 100900 82
2005-06-14 07:07:23 51°14.205 2°50.626 8.1 336 13 100900 82
2005-06-14 07:07:28 51°14.204 2°50.62 7.8 333 13 100900 82
2005-06-14 07:07:32 51°14.202 2°50.616 7.8 336 13 100900 82
2005-06-14 07:07:37 51°14.201 2°50.608 7.9 334 13 100900 82
2005-06-14 07:07:43 51°14.199 2°50.602 6.8 329 13 100900 82
2005-06-14 07:07:47 51°14.198 2°50.596 7.5 328 12.9 100900 82
2005-06-14 07:07:52 51°14.196 2°50.591 7.2 333 12.9 100900 82
2005-06-14 07:07:57 51°14.195 2°50.584 7 329 13 100890 82
2005-06-14 07:08:01 51°14.193 2°50.579 6.9 331 13 100890 82
2005-06-14 07:08:07 51°14.192 2°50.571 6.7 332 12.9 100900 82
2005-06-14 07:08:12 51°14.19 2°50.566 7.9 335 12.9 100900 82
2005-06-14 07:08:17 51°14.189 2°50.559 7.7 334 13 100900 82
2005-06-14 07:08:23 51°14.186 2°50.553 8 334 13 100900 82
2005-06-14 07:08:27 51°14.186 2°50.547 7.6 336 13 100900 82
2005-06-14 07:08:32 51°14.184 2°50.541 7.4 333 13 100900 82
2005-06-14 07:08:37 51°14.182 2°50.535 7.5 328 13 100900 82
2005-06-14 07:08:43 51°14.18 2°50.529 7.3 326 13 100900 82
2005-06-14 07:08:47 51°14.179 2°50.523 7.2 329 13 100900 82
2005-06-14 07:08:52 51°14.178 2°50.517 6.8 332 13 100900 82
2005-06-14 07:08:57 51°14.176 2°50.51 7 333 13 100900 82
2005-06-14 07:09:01 51°14.175 2°50.506 6.3 329 13 100900 82
2005-06-14 07:09:07 51°14.173 2°50.498 6.8 332 13 100900 81
2005-06-14 07:09:12 51°14.171 2°50.493 7.4 332 13 100900 81
2005-06-14 07:09:18 51°14.17 2°50.485 7.3 344 12.9 100900 82
2005-06-14 07:09:22 51°14.168 2°50.48 6.8 333 12.9 100900 82
2005-06-14 07:09:28 51°14.167 2°50.473 6.7 333 13 100900 82
2005-06-14 07:09:32 51°14.165 2°50.468 6.9 333 13 100900 82
2005-06-14 07:09:38 51°14.163 2°50.46 6.2 333 13 100900 82
2005-06-14 07:09:43 51°14.162 2°50.454 7.2 334 13 100900 82
2005-06-14 07:09:48 51°14.16 2°50.447 7.1 327 13 100900 82
2005-06-14 07:09:52 51°14.159 2°50.442 7.4 331 13 100900 82
2005-06-14 07:09:57 51°14.157 2°50.436 7.4 330 13 100900 82
2005-06-14 07:10:01 51°14.156 2°50.431 7 331 13 100900 82
2005-06-14 07:10:08 51°14.154 2°50.423 6.8 330 13 100900 82
2005-06-14 07:10:13 51°14.153 2°50.416 6.9 340 13 100900 82
2005-06-14 07:10:17 51°14.151 2°50.411 7.8 345 13 100890 82
2005-06-14 07:10:22 51°14.15 2°50.404 8.2 343 13 100890 82
2005-06-14 07:10:27 51°14.148 2°50.398 7.6 345 13 100900 82
2005-06-14 07:10:32 51°14.147 2°50.393 7.8 345 13 100900 82
2005-06-14 07:10:37 51°14.145 2°50.386 6.9 345 13 100900 82
2005-06-14 07:10:43 51°14.143 2°50.379 7.1 343 13 100900 82
2005-06-14 07:10:48 51°14.142 2°50.373 6.7 342 13 100900 82
2005-06-14 07:10:52 51°14.14 2°50.369 7.8 340 13 100900 82
2005-06-14 07:10:57 51°14.139 2°50.362 8.4 342 13 100890 81
2005-06-14 07:11:03 51°14.137 2°50.355 7.7 345 13 100890 81
2005-06-14 07:11:08 51°14.136 2°50.349 6.9 342 13 100900 81
2005-06-14 07:11:12 51°14.134 2°50.345 7.5 344 13 100900 81
2005-06-14 07:11:17 51°14.133 2°50.338 7 341 13 100900 81
2005-06-14 07:11:21 51°14.131 2°50.333 6.9 341 13 100900 81
2005-06-14 07:11:27 51°14.129 2°50.326 7 344 13 100890 81
2005-06-14 07:11:32 51°14.127 2°50.32 6.9 344 13 100890 81
2005-06-14 07:11:37 51°14.126 2°50.314 7.1 347 13 100900 81
2005-06-14 07:11:42 51°14.124 2°50.309 7.1 339 13 100900 81
2005-06-14 07:11:48 51°14.122 2°50.302 8.1 332 13 100900 81
2005-06-14 07:11:52 51°14.121 2°50.297 6.3 341 13 100900 81
2005-06-14 07:11:57 51°14.119 2°50.291 7.9 338 13 100900 81
2005-06-14 07:12:01 51°14.118 2°50.286 8 341 13 100900 81
2005-06-14 07:12:07 51°14.116 2°50.279 7.4 340 13 100900 81
2005-06-14 07:12:12 51°14.115 2°50.273 6.8 341 13 100900 81
2005-06-14 07:12:16 51°14.113 2°50.269 6.7 341 13 100910 81
2005-06-14 07:12:21 51°14.112 2°50.262 7.7 337 13 100910 81
2005-06-14 07:12:27 51°14.11 2°50.255 7.6 338 13 100900 81
2005-06-14 07:12:33 51°14.108 2°50.248 7.3 345 13 100900 81
2005-06-14 07:12:37 51°14.107 2°50.243 7.4 346 13 100900 81
2005-06-14 07:12:43 51°14.105 2°50.237 7.2 343 13 100900 81
2005-06-14 07:12:47 51°14.103 2°50.231 7.4 343 13.1 100900 81
2005-06-14 07:12:52 51°14.102 2°50.226 8 342 13.1 100900 81
2005-06-14 07:12:57 51°14.1 2°50.22 7.2 341 13.1 100900 81
2005-06-14 07:13:03 51°14.099 2°50.213 6.4 341 13.1 100900 81
2005-06-14 07:13:08 51°14.097 2°50.207 7.6 343 13.1 100900 81
2005-06-14 07:13:13 51°14.095 2°50.201 7.8 338 13.1 100900 81
2005-06-14 07:13:17 51°14.094 2°50.196 7.7 339 13.1 100900 81
2005-06-14 07:13:23 51°14.092 2°50.19 7.2 338 13.1 100900 81
2005-06-14 07:13:27 51°14.091 2°50.184 7.5 341 13.1 100910 81
2005-06-14 07:13:32 51°14.089 2°50.178 7.2 341 13.1 100910 81
2005-06-14 07:13:37 51°14.088 2°50.172 7.6 338 13.1 100900 81
2005-06-14 07:13:43 51°14.086 2°50.165 7.1 346 13.1 100900 81
2005-06-14 07:13:48 51°14.084 2°50.16 7.4 342 13.1 100900 81
2005-06-14 07:13:53 51°14.083 2°50.153 6.9 347 13.1 100900 81
2005-06-14 07:13:57 51°14.081 2°50.148 7.5 346 13.2 100900 81
2005-06-14 07:14:03 51°14.079 2°50.142 7.5 338 13.2 100900 81
2005-06-14 07:14:08 51°14.078 2°50.136 7.6 341 13.2 100900 81
2005-06-14 07:14:12 51°14.076 2°50.13 7.5 338 13.2 100900 81
2005-06-14 07:14:17 51°14.075 2°50.124 7.8 341 13.2 100910 81
2005-06-14 07:14:21 51°14.073 2°50.119 8 340 13.2 100910 81
2005-06-14 07:14:27 51°14.072 2°50.112 7.7 340 13.2 100900 80
2005-06-14 07:14:32 51°14.07 2°50.107 7.6 339 13.2 100900 80
2005-06-14 07:14:37 51°14.069 2°50.1 7.9 336 13.2 100900 80
2005-06-14 07:14:43 51°14.067 2°50.094 7.8 337 13.2 100900 80
2005-06-14 07:14:47 51°14.066 2°50.088 7.8 338 13.2 100900 80
2005-06-14 07:14:53 51°14.064 2°50.08 7.2 340 13.2 100900 80
2005-06-14 07:14:57 51°14.063 2°50.075 7.5 334 13.2 100900 80
2005-06-14 07:15:03 51°14.061 2°50.068 7.1 337 13.2 100900 80
2005-06-14 07:15:07 51°14.06 2°50.063 6.8 334 13.2 100900 80
2005-06-14 07:15:13 51°14.058 2°50.056 6.8 335 13.2 100900 80
2005-06-14 07:15:17 51°14.057 2°50.051 7.4 333 13.2 100900 80
2005-06-14 07:15:22 51°14.055 2°50.044 7 333 13.2 100900 80
2005-06-14 07:15:27 51°14.054 2°50.038 7.9 335 13.2 100900 80
2005-06-14 07:15:32 51°14.052 2°50.032 7.4 336 13.2 100900 80
2005-06-14 07:15:37 51°14.05 2°50.026 6.8 336 13.2 100900 80
2005-06-14 07:15:43 51°14.049 2°50.019 6.9 334 13.2 100900 80
2005-06-14 07:15:47 51°14.047 2°50.014 7.2 340 13.2 100910 80
2005-06-14 07:15:52 51°14.046 2°50.008 7.5 338 13.2 100910 80
2005-06-14 07:15:57 51°14.045 2°50.001 7.6 340 13.2 100900 79
2005-06-14 07:16:03 51°14.043 2°49.995 7.6 337 13.2 100900 79
2005-06-14 07:16:07 51°14.042 2°49.989 7.6 338 13.2 100910 79
2005-06-14 07:16:12 51°14.04 2°49.983 7.9 337 13.2 100910 79
2005-06-14 07:16:17 51°14.039 2°49.977 7.7 342 13.2 100900 79
2005-06-14 07:16:23 51°14.037 2°49.969 7.7 340 13.2 100900 79
2005-06-14 07:16:27 51°14.036 2°49.964 7.9 340 13.2 100900 79
2005-06-14 07:16:33 51°14.034 2°49.957 7.6 341 13.2 100900 79
2005-06-14 07:16:37 51°14.033 2°49.952 7 339 13.2 100900 79
2005-06-14 07:16:41 51°14.032 2°49.947 6.6 341 13.2 100900 79
2005-06-14 07:16:48 51°14.03 2°49.939 7.3 335 13.2 100900 79
2005-06-14 07:16:52 51°14.028 2°49.934 7.8 342 13.2 100900 79
2005-06-14 07:16:58 51°14.026 2°49.927 7.2 341 13.2 100900 79
2005-06-14 07:17:02 51°14.025 2°49.922 7.1 341 13.2 100900 79
2005-06-14 07:17:08 51°14.023 2°49.914 7.3 340 13.2 100900 80
2005-06-14 07:17:12 51°14.022 2°49.909 8.3 345 13.2 100900 80
2005-06-14 07:17:17 51°14.02 2°49.903 7.9 348 13.2 100900 80
2005-06-14 07:17:23 51°14.019 2°49.896 7.8 347 13.2 100900 80
2005-06-14 07:17:28 51°14.017 2°49.89 7.5 345 13.3 100900 80
2005-06-14 07:17:33 51°14.016 2°49.884 7.6 350 13.3 100900 80
2005-06-14 07:17:37 51°14.014 2°49.878 6.8 346 13.2 100900 80
2005-06-14 07:17:41 51°14.013 2°49.873 7.5 344 13.2 100900 80
2005-06-14 07:17:47 51°14.011 2°49.866 7.6 342 13.3 100900 80
2005-06-14 07:17:53 51°14.009 2°49.859 7 349 13.3 100900 80
2005-06-14 07:17:57 51°14.007 2°49.854 6.6 347 13.2 100900 79
2005-06-14 07:18:03 51°14.006 2°49.847 7.1 342 13.2 100900 79
2005-06-14 07:18:07 51°14.004 2°49.842 7 345 13.2 100900 79
2005-06-14 07:18:13 51°14.003 2°49.835 6.6 346 13.2 100900 79
2005-06-14 07:18:17 51°14.001 2°49.829 7.2 345 13.3 100900 79
2005-06-14 07:18:22 51°14 2°49.823 7.1 344 13.3 100900 79
2005-06-14 07:18:27 51°13.998 2°49.817 7.6 344 13.3 100900 79
2005-06-14 07:18:32 51°13.997 2°49.812 7.3 346 13.3 100900 79
2005-06-14 07:18:37 51°13.995 2°49.805 7.2 344 13.3 100900 79
2005-06-14 07:18:41 51°13.993 2°49.8 7.4 342 13.3 100900 79
2005-06-14 07:18:48 51°13.991 2°49.791 7.7 338 13.3 100900 79
2005-06-14 07:18:52 51°13.99 2°49.787 7.5 341 13.3 100900 79
2005-06-14 07:18:57 51°13.989 2°49.78 6.9 339 13.3 100900 79
2005-06-14 07:19:02 51°13.987 2°49.774 6.4 339 13.3 100900 79
2005-06-14 07:19:07 51°13.985 2°49.769 7.5 334 13.3 100900 79
2005-06-14 07:19:13 51°13.984 2°49.762 6.6 349 13.3 100900 79
2005-06-14 07:19:17 51°13.982 2°49.756 6.5 340 13.3 100900 79
2005-06-14 07:19:23 51°13.98 2°49.75 6.5 345 13.3 100900 79
2005-06-14 07:19:27 51°13.978 2°49.744 6.6 344 13.3 100910 79
2005-06-14 07:19:33 51°13.977 2°49.737 6.8 347 13.3 100910 79
2005-06-14 07:19:37 51°13.975 2°49.732 6.3 346 13.4 100910 79
2005-06-14 07:19:41 51°13.974 2°49.727 7.2 338 13.4 100910 79
2005-06-14 07:19:47 51°13.972 2°49.72 7.3 340 13.4 100910 79
2005-06-14 07:19:52 51°13.97 2°49.715 7.5 345 13.4 100910 79
2005-06-14 07:19:57 51°13.968 2°49.708 7.1 343 13.4 100910 80
2005-06-14 07:20:03 51°13.967 2°49.701 6.9 343 13.4 100910 80
2005-06-14 07:20:07 51°13.965 2°49.696 7.2 343 13.4 100910 79
2005-06-14 07:20:13 51°13.964 2°49.688 7.8 337 13.4 100910 79
2005-06-14 07:20:17 51°13.962 2°49.683 7 347 13.4 100900 79
2005-06-14 07:20:23 51°13.961 2°49.677 7.4 344 13.4 100900 79
2005-06-14 07:20:27 51°13.959 2°49.671 6.9 345 13.4 100910 79
2005-06-14 07:20:32 51°13.958 2°49.665 7.2 340 13.4 100910 79
2005-06-14 07:20:37 51°13.956 2°49.658 6.4 342 13.4 100900 79
2005-06-14 07:20:43 51°13.954 2°49.65 6.6 342 13.4 100900 79
2005-06-14 07:20:48 51°13.953 2°49.645 6.2 338 13.4 100910 79
2005-06-14 07:20:53 51°13.951 2°49.638 6.9 342 13.4 100910 79
2005-06-14 07:20:57 51°13.95 2°49.633 6.7 338 13.4 100900 79
2005-06-14 07:21:03 51°13.948 2°49.625 6.9 339 13.4 100900 79
2005-06-14 07:21:07 51°13.947 2°49.62 7.3 342 13.4 100900 79
2005-06-14 07:21:12 51°13.945 2°49.613 6.7 341 13.4 100900 79
2005-06-14 07:21:17 51°13.944 2°49.607 7 341 13.4 100910 78
2005-06-14 07:21:22 51°13.942 2°49.599 6.8 336 13.4 100910 78
2005-06-14 07:21:27 51°13.941 2°49.591 6.8 343 13.4 100910 78
2005-06-14 07:21:33 51°13.939 2°49.583 6.9 332 13.4 100910 78
2005-06-14 07:21:37 51°13.938 2°49.576 6.9 339 13.4 100910 78
2005-06-14 07:21:43 51°13.936 2°49.568 7.6 334 13.4 100910 78
2005-06-14 07:21:47 51°13.935 2°49.562 7.5 338 13.4 100910 78
2005-06-14 07:21:53 51°13.933 2°49.553 8 -999 13.4 100910 78
2005-06-14 07:21:57 51°13.932 2°49.545 7.4 342 13.4 100900 79
2005-06-14 07:22:02 51°13.93 2°49.537 7.1 340 13.4 100900 79
2005-06-14 07:22:08 51°13.93 2°49.528 6.5 345 13.5 100900 79
2005-06-14 07:22:12 51°13.928 2°49.522 7.7 342 13.5 100900 79
2005-06-14 07:22:17 51°13.927 2°49.512 8 337 13.5 100900 79
2005-06-14 07:22:21 51°13.926 2°49.506 7.8 342 13.5 100900 79
2005-06-14 07:22:28 51°13.924 2°49.495 7.4 338 13.5 100910 79
2005-06-14 07:22:32 51°13.923 2°49.488 7.2 344 13.5 100910 79
2005-06-14 07:22:37 51°13.922 2°49.479 7.6 339 13.5 100900 79
2005-06-14 07:22:43 51°13.921 2°49.47 7.8 341 13.5 100900 79
2005-06-14 07:22:48 51°13.919 2°49.461 7.7 343 13.5 100900 79
2005-06-14 07:22:53 51°13.918 2°49.453 7.6 341 13.5 100900 79
2005-06-14 07:22:57 51°13.918 2°49.445 7.4 341 13.5 100910 79
2005-06-14 07:23:03 51°13.917 2°49.435 7.1 337 13.5 100910 79
2005-06-14 07:23:08 51°13.916 2°49.427 6.9 338 13.5 100910 78
2005-06-14 07:23:13 51°13.914 2°49.418 7 338 13.5 100910 78
2005-06-14 07:23:17 51°13.914 2°49.41 7.1 338 13.5 100910 78
2005-06-14 07:23:22 51°13.913 2°49.401 7.2 330 13.5 100910 78
2005-06-14 07:23:27 51°13.912 2°49.392 7.4 331 13.5 100910 78
2005-06-14 07:23:32 51°13.912 2°49.384 6.7 330 13.5 100910 78
2005-06-14 07:23:37 51°13.912 2°49.374 6.8 327 13.5 100910 78
2005-06-14 07:23:42 51°13.912 2°49.365 7.1 328 13.5 100910 78
2005-06-14 07:23:47 51°13.912 2°49.356 7.6 329 13.5 100910 78
2005-06-14 07:23:52 51°13.912 2°49.348 7.3 324 13.5 100910 78
2005-06-14 07:23:57 51°13.913 2°49.338 6.8 324 13.5 100910 77
2005-06-14 07:24:03 51°13.914 2°49.328 6.5 320 13.5 100910 77
2005-06-14 07:24:07 51°13.914 2°49.319 6.5 321 13.5 100910 77
2005-06-14 07:24:13 51°13.915 2°49.309 6.8 318 13.5 100910 77
2005-06-14 07:24:17 51°13.916 2°49.301 7.2 325 13.5 100910 77
2005-06-14 07:24:23 51°13.917 2°49.291 7.6 323 13.5 100910 77
2005-06-14 07:24:27 51°13.917 2°49.283 7.2 322 13.5 100910 77
2005-06-14 07:24:32 51°13.918 2°49.275 7.5 319 13.5 100910 77
2005-06-14 07:24:36 51°13.919 2°49.269 7 317 13.5 100910 78
2005-06-14 07:24:43 51°13.92 2°49.258 6.9 318 13.5 100910 78
2005-06-14 07:24:47 51°13.92 2°49.251 6.4 317 13.5 100910 78
2005-06-14 07:24:52 51°13.921 2°49.245 5.9 320 13.5 100910 78
2005-06-14 07:24:57 51°13.922 2°49.237 6.2 322 13.5 100910 78
2005-06-14 07:25:03 51°13.923 2°49.23 6.8 323 13.5 100910 78
2005-06-14 07:25:07 51°13.923 2°49.224 6.6 325 13.5 100910 77
2005-06-14 07:25:13 51°13.924 2°49.217 6.3 327 13.5 100910 77
2005-06-14 07:25:17 51°13.924 2°49.212 6 323 13.5 100910 78
2005-06-14 07:25:23 51°13.925 2°49.206 5.8 323 13.5 100910 78
2005-06-14 07:25:27 51°13.925 2°49.201 6 328 13.6 100910 78
2005-06-14 07:25:32 51°13.925 2°49.195 5.9 328 13.6 100910 78
2005-06-14 07:25:37 51°13.925 2°49.19 5.8 331 13.6 100910 78
2005-06-14 07:25:43 51°13.926 2°49.184 6.1 327 13.6 100910 78
2005-06-14 07:25:48 51°13.926 2°49.179 5.5 330 13.6 100920 77
2005-06-14 07:25:53 51°13.926 2°49.175 5.8 329 13.6 100920 77
2005-06-14 07:25:57 51°13.926 2°49.171 6.4 332 13.6 100910 77
2005-06-14 07:26:01 51°13.927 2°49.167 6.3 332 13.6 100910 77
2005-06-14 07:26:07 51°13.927 2°49.162 6.1 331 13.6 100910 77
2005-06-14 07:26:13 51°13.927 2°49.157 6.7 330 13.6 100910 77
2005-06-14 07:26:17 51°13.928 2°49.153 6.4 328 13.6 100910 77
2005-06-14 07:26:21 51°13.928 2°49.151 6.1 330 13.6 100910 77
2005-06-14 07:26:27 51°13.928 2°49.146 6.8 326 13.6 100910 77
2005-06-14 07:26:32 51°13.928 2°49.142 6.4 327 13.6 100910 77
2005-06-14 07:26:37 51°13.929 2°49.138 7.2 326 13.6 100910 77
2005-06-14 07:26:41 51°13.929 2°49.135 6.5 329 13.6 100910 77
2005-06-14 07:26:47 51°13.929 2°49.131 6.6 326 13.6 100910 77
2005-06-14 07:26:53 51°13.93 2°49.128 6.3 321 13.6 100910 77
2005-06-14 07:26:57 51°13.931 2°49.124 5.9 322 13.6 100910 77
2005-06-14 07:27:01 51°13.931 2°49.122 6 323 13.6 100910 77
2005-06-14 07:27:07 51°13.932 2°49.118 5.9 323 13.6 100910 77
2005-06-14 07:27:12 51°13.932 2°49.115 5.8 322 13.6 100910 77
2005-06-14 07:27:17 51°13.933 2°49.112 5.3 323 13.6 100910 77
2005-06-14 07:27:23 51°13.933 2°49.109 5.8 324 13.6 100910 77
2005-06-14 07:27:27 51°13.934 2°49.106 5.6 327 13.6 100910 77
2005-06-14 07:27:33 51°13.934 2°49.103 5.6 318 13.6 100910 77
2005-06-14 07:27:37 51°13.935 2°49.101 5.4 322 13.6 100910 77
2005-06-14 07:27:43 51°13.935 2°49.098 6.4 321 13.6 100910 77
2005-06-14 07:27:48 51°13.936 2°49.096 5.8 322 13.6 100910 77
2005-06-14 07:27:53 51°13.936 2°49.093 5.5 324 13.6 100910 77
2005-06-14 07:27:57 51°13.937 2°49.091 5.6 321 13.6 100910 77
2005-06-14 07:28:02 51°13.937 2°49.089 6 321 13.6 100910 77
2005-06-14 07:28:08 51°13.938 2°49.086 5 322 13.6 100910 77
2005-06-14 07:28:13 51°13.939 2°49.083 5.5 315 13.6 100910 77
2005-06-14 07:28:18 51°13.94 2°49.081 5.3 319 13.6 100910 77
2005-06-14 07:28:23 51°13.94 2°49.079 6.3 227 13.6 100910 77
2005-06-14 07:28:27 51°13.941 2°49.077 6.2 42 13.6 100910 77
2005-06-14 07:28:32 51°13.941 2°49.075 6.6 227 13.6 100910 77
2005-06-14 07:28:37 51°13.943 2°49.073 6.4 309 13.6 100910 77
2005-06-14 07:28:42 51°13.943 2°49.071 5.6 306 13.6 100910 77
2005-06-14 07:28:47 51°13.944 2°49.069 5.8 309 13.6 100910 77
2005-06-14 07:28:52 51°13.945 2°49.068 5.7 314 13.6 100910 77
2005-06-14 07:28:57 51°13.946 2°49.065 6.5 313 13.7 100910 77
2005-06-14 07:29:03 51°13.947 2°49.063 6.1 319 13.7 100910 77
2005-06-14 07:29:07 51°13.947 2°49.062 5.7 317 13.7 100910 77
2005-06-14 07:29:12 51°13.948 2°49.06 5.6 318 13.7 100910 77
2005-06-14 07:29:17 51°13.949 2°49.059 5.5 319 13.7 100920 77
2005-06-14 07:29:21 51°13.95 2°49.058 5.1 316 13.7 100920 77
2005-06-14 07:29:28 51°13.951 2°49.056 4.7 227 13.7 100910 78
2005-06-14 07:29:32 51°13.951 2°49.055 5.4 43 13.7 100910 78
2005-06-14 07:29:38 51°13.952 2°49.053 5.7 317 13.7 100910 77
2005-06-14 07:29:42 51°13.953 2°49.052 5.7 318 13.7 100910 77
2005-06-14 07:29:47 51°13.954 2°49.05 5.7 316 13.7 100920 77
2005-06-14 07:29:52 51°13.955 2°49.049 6.3 317 13.7 100920 77
2005-06-14 07:29:57 51°13.956 2°49.048 5.7 317 13.7 100910 77
2005-06-14 07:30:03 51°13.956 2°49.045 5.6 318 13.7 100910 77
2005-06-14 07:30:07 51°13.957 2°49.041 6.4 324 13.7 100920 77
2005-06-14 07:30:12 51°13.957 2°49.035 6 335 13.7 100920 77
2005-06-14 07:30:17 51°13.957 2°49.028 7.3 332 13.7 100910 77
2005-06-14 07:30:23 51°13.957 2°49.018 7.1 334 13.7 100910 77
2005-06-14 07:30:28 51°13.955 2°49.008 7.7 342 13.8 100910 77
2005-06-14 07:30:33 51°13.954 2°48.998 8.2 348 13.8 100910 77
2005-06-14 07:30:37 51°13.952 2°48.987 7.9 349 13.8 100910 76
2005-06-14 07:30:43 51°13.949 2°48.974 8.4 345 13.8 100910 76
2005-06-14 07:30:48 51°13.946 2°48.961 9.2 350 13.8 100910 76
2005-06-14 07:30:53 51°13.942 2°48.948 9.3 -999 13.8 100910 76
2005-06-14 07:30:57 51°13.938 2°48.936 8.5 352 13.8 100910 76
2005-06-14 07:31:02 51°13.932 2°48.923 9.3 349 13.8 100910 76
2005-06-14 07:31:07 51°13.927 2°48.911 9.1 355 13.8 100910 76
2005-06-14 07:31:13 51°13.92 2°48.897 9.5 355 13.8 100910 76
2005-06-14 07:31:17 51°13.914 2°48.885 9.2 1 13.8 100910 76
2005-06-14 07:31:23 51°13.906 2°48.873 9.5 358 13.8 100910 76
2005-06-14 07:31:28 51°13.898 2°48.862 9.6 7 13.8 100910 76
2005-06-14 07:31:32 51°13.891 2°48.853 8.9 4 13.8 100910 76
2005-06-14 07:31:37 51°13.882 2°48.844 8.6 5 13.8 100900 76
2005-06-14 07:31:42 51°13.872 2°48.838 9.2 11 13.8 100900 76
2005-06-14 07:31:47 51°13.863 2°48.833 9.1 18 13.8 100910 77
2005-06-14 07:31:52 51°13.855 2°48.832 8.4 23 13.8 100910 77
2005-06-14 07:31:57 51°13.844 2°48.832 9.3 33 13.8 100910 77
2005-06-14 07:32:01 51°13.836 2°48.834 8.8 40 13.8 100910 77
2005-06-14 07:32:07 51°13.825 2°48.839 8.3 44 13.8 100910 77
2005-06-14 07:32:13 51°13.815 2°48.845 8.1 43 13.8 100910 77
2005-06-14 07:32:17 51°13.808 2°48.851 8.1 56 13.9 100910 77
2005-06-14 07:32:23 51°13.801 2°48.858 7.2 58 13.9 100910 77
2005-06-14 07:32:28 51°13.795 2°48.866 6.7 58 13.8 100910 77
2005-06-14 07:32:33 51°13.79 2°48.873 6.1 71 13.8 100910 77
2005-06-14 07:32:37 51°13.786 2°48.88 6.1 73 13.8 100910 76
2005-06-14 07:32:43 51°13.782 2°48.888 5.7 73 13.8 100910 76
2005-06-14 07:32:48 51°13.778 2°48.895 5.9 82 13.7 100910 76
2005-06-14 07:32:53 51°13.775 2°48.903 6 91 13.7 100910 76
2005-06-14 07:32:57 51°13.773 2°48.909 5.7 91 13.8 100910 77
2005-06-14 07:33:02 51°13.771 2°48.917 5.6 94 13.8 100910 77
2005-06-14 07:33:07 51°13.77 2°48.924 5.4 99 13.7 100910 76
2005-06-14 07:33:13 51°13.768 2°48.932 5.5 98 13.7 100910 76
2005-06-14 07:33:17 51°13.767 2°48.938 4.8 105 13.7 100910 76
2005-06-14 07:33:23 51°13.766 2°48.946 4.9 109 13.7 100910 76
2005-06-14 07:33:27 51°13.767 2°48.953 5.2 112 13.7 100920 76
2005-06-14 07:33:33 51°13.766 2°48.961 4.9 116 13.7 100920 76
2005-06-14 07:33:37 51°13.767 2°48.967 4.4 124 13.7 100920 76
2005-06-14 07:33:43 51°13.767 2°48.974 4.6 126 13.7 100920 76
2005-06-14 07:33:47 51°13.768 2°48.98 4.2 125 13.7 100920 76
2005-06-14 07:33:53 51°13.769 2°48.988 4.8 127 13.7 100920 76
2005-06-14 07:33:57 51°13.771 2°48.993 4.3 141 13.6 100920 76
2005-06-14 07:34:03 51°13.773 2°49 3.8 150 13.6 100920 76
2005-06-14 07:34:08 51°13.776 2°49.006 4 155 13.7 100920 76
2005-06-14 07:34:12 51°13.777 2°49.011 4.2 165 13.7 100920 76
2005-06-14 07:34:17 51°13.781 2°49.017 3.8 170 13.7 100920 76
2005-06-14 07:34:23 51°13.784 2°49.022 3.7 173 13.7 100920 76
2005-06-14 07:34:27 51°13.786 2°49.027 3.6 180 13.7 100930 77
2005-06-14 07:34:32 51°13.79 2°49.031 2.9 185 13.7 100930 77
2005-06-14 07:34:37 51°13.793 2°49.036 2.9 186 13.7 100930 77
2005-06-14 07:34:42 51°13.797 2°49.041 1.7 194 13.7 100930 77
2005-06-14 07:34:48 51°13.801 2°49.047 2.6 189 13.7 100930 77
2005-06-14 07:34:52 51°13.805 2°49.05 2.9 172 13.7 100930 77
2005-06-14 07:34:57 51°13.808 2°49.056 3.2 177 13.7 100930 77
2005-06-14 07:35:02 51°13.812 2°49.061 4.2 166 13.7 100930 77
2005-06-14 07:35:08 51°13.816 2°49.066 3.3 171 13.8 100930 77
2005-06-14 07:35:13 51°13.82 2°49.072 3.7 166 13.8 100930 77
2005-06-14 07:35:17 51°13.824 2°49.076 3.3 168 13.8 100930 77
2005-06-14 07:35:22 51°13.828 2°49.082 3.5 162 13.8 100930 77
2005-06-14 07:35:27 51°13.832 2°49.087 3.2 171 13.7 100930 76
2005-06-14 07:35:33 51°13.837 2°49.094 3.3 163 13.7 100930 76
2005-06-14 07:35:37 51°13.84 2°49.099 3.1 165 13.7 100930 76
2005-06-14 07:35:43 51°13.845 2°49.106 3.6 156 13.7 100930 76
2005-06-14 07:35:47 51°13.849 2°49.111 3.5 155 13.7 100930 76
2005-06-14 07:35:52 51°13.852 2°49.117 3.4 156 13.7 100930 76
2005-06-14 07:35:58 51°13.857 2°49.124 3.4 159 13.7 100930 76
2005-06-14 07:36:03 51°13.86 2°49.13 3.6 157 13.7 100930 76
2005-06-14 07:36:07 51°13.863 2°49.136 3.5 159 13.7 100920 76
2005-06-14 07:36:13 51°13.867 2°49.143 3.6 153 13.7 100920 76
2005-06-14 07:36:17 51°13.871 2°49.149 3.4 153 13.7 100930 76
2005-06-14 07:36:23 51°13.874 2°49.156 3.9 154 13.7 100930 76
2005-06-14 07:36:28 51°13.878 2°49.162 4.1 152 13.7 100930 76
2005-06-14 07:36:32 51°13.881 2°49.168 4.1 164 13.7 100930 76
2005-06-14 07:36:37 51°13.884 2°49.174 4 158 13.7 100920 77
2005-06-14 07:36:43 51°13.888 2°49.182 3.3 150 13.7 100920 77
2005-06-14 07:36:48 51°13.891 2°49.188 4.2 160 13.7 100930 77
2005-06-14 07:36:52 51°13.893 2°49.193 3.4 154 13.7 100930 77
2005-06-14 07:36:56 51°13.896 2°49.197 3.9 158 13.7 100930 77
2005-06-14 07:37:03 51°13.9 2°49.207 3.7 155 13.7 100930 77
2005-06-14 07:37:07 51°13.902 2°49.212 4.1 149 13.7 100930 77
2005-06-14 07:37:13 51°13.905 2°49.219 3.7 149 13.7 100930 77
2005-06-14 07:37:17 51°13.908 2°49.223 3.5 151 13.7 100930 77
2005-06-14 07:37:21 51°13.91 2°49.228 4 158 13.7 100930 77
2005-06-14 07:37:28 51°13.913 2°49.235 3.7 153 13.7 100930 77
2005-06-14 07:37:33 51°13.916 2°49.241 3.8 151 13.7 100930 77
2005-06-14 07:37:38 51°13.918 2°49.247 4 148 13.7 100920 77
2005-06-14 07:37:42 51°13.92 2°49.252 3.9 147 13.7 100920 77
2005-06-14 07:37:47 51°13.923 2°49.258 4 138 13.7 100930 77
2005-06-14 07:37:52 51°13.925 2°49.263 4.7 -999 13.7 100930 77
2005-06-14 07:37:57 51°13.927 2°49.269 4.5 133 13.7 100930 77
2005-06-14 07:38:03 51°13.929 2°49.275 4.3 135 13.7 100930 77
2005-06-14 07:38:08 51°13.931 2°49.281 4.7 135 13.7 100930 77
2005-06-14 07:38:13 51°13.934 2°49.286 4.3 139 13.7 100930 77
2005-06-14 07:38:17 51°13.935 2°49.291 4.1 137 13.7 100930 78
2005-06-14 07:38:22 51°13.937 2°49.296 4.4 135 13.7 100930 78
2005-06-14 07:38:27 51°13.94 2°49.301 4.2 138 13.7 100930 78
2005-06-14 07:38:33 51°13.942 2°49.308 4 138 13.7 100930 78
2005-06-14 07:38:37 51°13.944 2°49.312 4.1 136 13.8 100920 78
2005-06-14 07:38:43 51°13.947 2°49.319 3.5 141 13.8 100920 78
2005-06-14 07:38:47 51°13.948 2°49.323 3.5 140 13.8 100920 78
2005-06-14 07:38:53 51°13.951 2°49.329 3.5 143 13.8 100920 78
2005-06-14 07:38:57 51°13.952 2°49.334 3.5 142 13.8 100920 78
2005-06-14 07:39:03 51°13.954 2°49.34 3.5 145 13.8 100920 78
2005-06-14 07:39:07 51°13.956 2°49.344 3.4 137 13.8 100930 78
2005-06-14 07:39:12 51°13.958 2°49.35 4 139 13.8 100930 78
2005-06-14 07:39:17 51°13.96 2°49.355 3.8 141 13.8 100930 78
2005-06-14 07:39:23 51°13.963 2°49.361 3.4 148 13.8 100930 78
2005-06-14 07:39:28 51°13.965 2°49.366 4.2 158 13.8 100930 78
2005-06-14 07:39:33 51°13.966 2°49.371 4.8 149 13.8 100930 78
2005-06-14 07:39:37 51°13.968 2°49.376 4.4 145 13.8 100930 78
2005-06-14 07:39:43 51°13.97 2°49.382 4.9 149 13.8 100930 78
2005-06-14 07:39:48 51°13.972 2°49.387 4.6 148 13.8 100940 78
2005-06-14 07:39:53 51°13.974 2°49.393 4.9 148 13.8 100940 78
2005-06-14 07:39:57 51°13.976 2°49.398 5 151 13.8 100930 78
2005-06-14 07:40:01 51°13.977 2°49.402 5.1 147 13.8 100930 78
2005-06-14 07:40:07 51°13.98 2°49.408 4.5 148 13.8 100930 77
2005-06-14 07:40:12 51°13.982 2°49.414 4.6 148 13.8 100930 77
2005-06-14 07:40:17 51°13.984 2°49.418 4.6 144 13.8 100930 77
2005-06-14 07:40:23 51°13.986 2°49.425 4.5 145 13.8 100930 77
2005-06-14 07:40:27 51°13.987 2°49.43 4.6 145 13.7 100930 77
2005-06-14 07:40:33 51°13.989 2°49.436 4.3 148 13.7 100930 77
2005-06-14 07:40:37 51°13.991 2°49.44 4.3 146 13.7 100930 77
2005-06-14 07:40:42 51°13.993 2°49.446 4.3 144 13.7 100930 77
2005-06-14 07:40:47 51°13.995 2°49.451 4.3 144 13.7 100930 76
2005-06-14 07:40:52 51°13.997 2°49.456 3.8 144 13.7 100930 76
2005-06-14 07:40:57 51°13.999 2°49.462 4.1 142 13.7 100930 76
2005-06-14 07:41:03 51°14.001 2°49.468 4.2 136 13.7 100930 76
2005-06-14 07:41:08 51°14.003 2°49.474 4.3 140 13.7 100930 76
2005-06-14 07:41:12 51°14.004 2°49.479 3.8 141 13.7 100930 76
2005-06-14 07:41:17 51°14.006 2°49.484 4.1 135 13.7 100930 76
2005-06-14 07:41:23 51°14.008 2°49.49 3.9 141 13.7 100930 76
2005-06-14 07:41:28 51°14.008 2°49.496 4 139 13.7 100930 76
2005-06-14 07:41:33 51°14.011 2°49.501 3.7 138 13.7 100930 76
2005-06-14 07:41:38 51°14.012 2°49.507 3.7 134 13.7 100930 76
2005-06-14 07:41:42 51°14.013 2°49.512 3.6 131 13.7 100930 76
2005-06-14 07:41:48 51°14.014 2°49.518 3.4 130 13.7 100930 76
2005-06-14 07:41:52 51°14.016 2°49.523 3.7 126 13.7 100930 76
2005-06-14 07:41:57 51°14.017 2°49.529 3.9 132 13.7 100940 76
2005-06-14 07:42:02 51°14.018 2°49.534 4.2 134 13.7 100940 76
2005-06-14 07:42:07 51°14.019 2°49.54 4.2 137 13.7 100930 77
2005-06-14 07:42:13 51°14.021 2°49.547 4.2 134 13.7 100930 77
2005-06-14 07:42:17 51°14.022 2°49.551 4.2 128 13.8 100940 77
2005-06-14 07:42:21 51°14.022 2°49.555 3.7 135 13.8 100940 77
2005-06-14 07:42:28 51°14.024 2°49.563 3.9 128 13.8 100930 77
2005-06-14 07:42:33 51°14.025 2°49.569 4.1 137 13.8 100930 77
2005-06-14 07:42:37 51°14.026 2°49.574 4.6 136 13.8 100930 77
2005-06-14 07:42:43 51°14.028 2°49.58 4.2 132 13.8 100930 77
2005-06-14 07:42:47 51°14.028 2°49.585 4 129 13.8 100930 77
2005-06-14 07:42:52 51°14.03 2°49.59 3.6 134 13.8 100930 77
2005-06-14 07:42:57 51°14.031 2°49.596 3.9 139 13.8 100930 77
2005-06-14 07:43:03 51°14.032 2°49.603 4.3 131 13.8 100930 77
2005-06-14 07:43:08 51°14.033 2°49.608 3.9 135 13.8 100930 76
2005-06-14 07:43:13 51°14.034 2°49.614 4.4 225 13.8 100930 76
2005-06-14 07:43:17 51°14.035 2°49.619 4.6 142 13.8 100940 77
2005-06-14 07:43:21 51°14.036 2°49.623 4 130 13.8 100940 77
2005-06-14 07:43:28 51°14.037 2°49.631 4.1 135 13.8 100930 77
2005-06-14 07:43:33 51°14.037 2°49.637 4.3 127 13.8 100930 77
2005-06-14 07:43:37 51°14.038 2°49.642 4.6 137 13.8 100930 77
2005-06-14 07:43:42 51°14.039 2°49.647 4.6 132 13.8 100930 77
2005-06-14 07:43:48 51°14.04 2°49.653 4.3 133 13.8 100940 77
2005-06-14 07:43:53 51°14.04 2°49.659 4.9 135 13.8 100940 77
2005-06-14 07:43:57 51°14.042 2°49.665 4 135 13.8 100940 77
2005-06-14 07:44:01 51°14.042 2°49.669 5.2 132 13.8 100940 77
2005-06-14 07:44:08 51°14.043 2°49.676 5.2 131 13.8 100940 76
2005-06-14 07:44:12 51°14.043 2°49.681 5.3 133 13.8 100940 76
2005-06-14 07:44:17 51°14.044 2°49.688 5.4 131 13.9 100930 76
2005-06-14 07:44:23 51°14.045 2°49.694 5.5 131 13.9 100930 76
2005-06-14 07:44:27 51°14.045 2°49.699 5.4 133 13.8 100930 76
2005-06-14 07:44:32 51°14.046 2°49.705 5 136 13.8 100930 76
2005-06-14 07:44:38 51°14.047 2°49.712 4.3 134 13.8 100930 76
2005-06-14 07:44:42 51°14.048 2°49.717 4.9 131 13.8 100930 76
2005-06-14 07:44:48 51°14.048 2°49.724 4.6 129 13.8 100930 75
2005-06-14 07:44:52 51°14.049 2°49.73 4.5 125 13.8 100930 75
2005-06-14 07:44:57 51°14.05 2°49.735 4.3 129 13.8 100930 75
2005-06-14 07:45:01 51°14.051 2°49.741 4.2 127 13.8 100930 75
2005-06-14 07:45:07 51°14.051 2°49.748 5 126 13.8 100930 75
2005-06-14 07:45:12 51°14.052 2°49.754 5 123 13.8 100930 75
2005-06-14 07:45:17 51°14.053 2°49.761 4.7 123 13.8 100930 75
2005-06-14 07:45:23 51°14.054 2°49.768 4.7 120 13.8 100930 75